Weather History for Prairie Du Chien, WI

Change the Weather History Date:

Thursday, June 19, 2014

  Actual Average Record
Temperature  
Mean Temperature 70 °F -  
Max Temperature 77 °F 82 °F 98 °F (1953)
Min Temperature 64 °F 58 °F 46 °F (1976)
Cooling Degree Days 5    
Growing Degree Days 20 (Base 50)    
Moisture  
Dew Point 65 °F    
Average Humidity 89    
Maximum Humidity 96    
Minimum Humidity 68    
Precipitation  
Precipitation 2.68 in - - ()
Sea Level Pressure  
Sea Level Pressure 29.99 in    
Wind  
Wind Speed 11 mph (ESE)    
Max Wind Speed 21 mph    
Max Gust Speed 26 mph    
Visibility 9 miles    
Events Rain    
Averages and records for this station are not official NWS values.
T = Trace of Precipitation, MM = Missing Value Source: NWS Daily Summary

Daily Weather History Graph

Daily Weather History Graph

Search for Another Location

Airport:

Trip Planner

Search our weather history database for the weather conditions in past years. The results will help you decide how hot, cold, wet, or windy it might be!

Date:

Astronomy

Jun. 19, 2014 Rise Set
Actual Time 5:24 AM CDT 8:46 PM CDT
Civil Twilight 4:49 AM CDT 9:22 PM CDT
Nautical Twilight 4:03 AM CDT 10:08 PM CDT
Astronomical Twilight 3:06 AM CDT 11:05 PM CDT
Moon 12:40 AM CDT (6/19) 1:06 PM CDT (6/19)
Length of Visible Light 16h 32m
Length of Day
15h 21m
Waning Gibbous, 51% of the Moon is Illuminated
Jun 19
Waning Gibbous
Jun 19
Last Quarter
Jun 27
New
Jul 5
First Quarter
Jul 12
Full

Hourly Weather History & Observations

Time (CDT) Temp. Dew Point Humidity Pressure Visibility Wind Dir Wind Speed Gust Speed Precip Events Conditions
12:15 AM 70.0 °F 65.7 °F 86% 29.95 in 10.0 mi East 15.0 mph 20.7 mph 0.05 in Rain Light Rain
12:35 AM 69.4 °F 65.8 °F 88% 29.96 in 10.0 mi East 11.5 mph - 0.09 in Rain Light Rain
12:55 AM 68.9 °F 65.8 °F 90% 29.97 in 4.0 mi ESE 13.8 mph 20.7 mph 0.14 in Rain Light Rain
1:15 AM 69.1 °F 64.8 °F 86% 29.95 in 10.0 mi ESE 18.4 mph 26.5 mph N/A Rain Light Rain
1:35 AM 68.2 °F 63.9 °F 86% 29.96 in 10.0 mi East 20.7 mph 26.5 mph N/A   Overcast
1:55 AM 67.6 °F 62.8 °F 84% 29.95 in 10.0 mi ESE 11.5 mph 19.6 mph N/A   Overcast
2:15 AM 68.5 °F 63.9 °F 85% 30.02 in 10.0 mi West 9.2 mph 23.0 mph N/A   Overcast
2:35 AM 67.5 °F 64.9 °F 92% 30.04 in 1.8 mi NNE 12.7 mph 26.5 mph 0.47 in Rain Heavy Rain
2:55 AM 66.2 °F 63.9 °F 92% 30.03 in 5.0 mi ESE 8.1 mph - 0.90 in Rain Rain
3:15 AM 65.7 °F 63.7 °F 93% 30.00 in 7.0 mi East 19.6 mph 25.3 mph 0.12 in Rain Heavy Rain
3:35 AM 65.3 °F 63.1 °F 93% 30.01 in 10.0 mi East 16.1 mph 25.3 mph 0.17 in Rain Light Rain
3:55 AM 64.9 °F 63.0 °F 93% 30.00 in 10.0 mi East 20.7 mph 26.5 mph 0.18 in Rain Rain
4:15 AM 64.8 °F 62.8 °F 93% 30.00 in 10.0 mi East 13.8 mph 19.6 mph 0.01 in Rain Light Rain
4:35 AM 64.4 °F 62.6 °F 94% 30.00 in 10.0 mi East 13.8 mph 23.0 mph 0.03 in Rain Light Rain
4:55 AM 64.4 °F 62.6 °F 94% 30.01 in 10.0 mi East 12.7 mph 21.9 mph 0.07 in Rain Light Rain
5:15 AM 64.4 °F 62.8 °F 94% 30.04 in 10.0 mi ESE 9.2 mph - 0.03 in Rain Rain
5:55 AM 64.8 °F 63.5 °F 96% 29.97 in 10.0 mi ESE 17.3 mph 25.3 mph 0.09 in Rain Rain
6:15 AM 64.6 °F 63.3 °F 96% 29.99 in 10.0 mi ESE 15.0 mph 23.0 mph 0.02 in Rain Light Rain
6:35 AM 64.8 °F 63.5 °F 96% 30.01 in 10.0 mi SE 5.8 mph 10.4 mph 0.02 in Rain Light Rain
6:55 AM 64.9 °F 63.5 °F 95% 30.01 in 10.0 mi ESE 6.9 mph - 0.03 in Rain Light Rain
7:15 AM 64.8 °F 63.5 °F 96% 29.98 in 10.0 mi East 11.5 mph - 0.02 in Rain Light Rain
7:35 AM 65.3 °F 63.9 °F 95% 30.02 in 10.0 mi SSW 6.9 mph - 0.03 in Rain Light Rain
7:55 AM 65.7 °F 64.2 °F 95% 29.98 in 10.0 mi East 9.2 mph - 0.04 in Rain Light Rain
8:15 AM 65.5 °F 64.0 °F 95% 29.98 in 10.0 mi ESE 8.1 mph - N/A   Light Drizzle
8:55 AM 65.7 °F 64.4 °F 96% 30.02 in 10.0 mi ESE 5.8 mph - N/A   Clear
9:35 AM 66.4 °F 64.9 °F 95% 30.05 in 10.0 mi Calm Calm - N/A   Scattered Clouds
9:55 AM 66.7 °F 65.3 °F 95% 30.05 in 10.0 mi North 5.8 mph - N/A   Mostly Cloudy
10:15 AM 67.1 °F 65.7 °F 95% 30.06 in 10.0 mi NW 11.5 mph - N/A   Overcast
10:35 AM 67.6 °F 66.2 °F 95% 30.04 in 10.0 mi North 4.6 mph - N/A   Overcast
10:55 AM 70.5 °F 66.0 °F 86% 30.02 in 10.0 mi East 8.1 mph - N/A   Overcast
11:10 AM 72.5 °F 66.7 °F 82% 30.01 in 10.0 mi East 12.7 mph 16.1 mph N/A   Mostly Cloudy
11:35 AM 73.4 °F 65.5 °F 76% 30.04 in 10.0 mi East 6.9 mph 16.1 mph N/A   Scattered Clouds
11:55 AM 74.7 °F 65.1 °F 72% 30.04 in 10.0 mi ESE 11.5 mph - N/A   Mostly Cloudy
12:15 PM 75.6 °F 65.8 °F 72% 30.04 in 10.0 mi East 12.7 mph 18.4 mph N/A   Mostly Cloudy
12:35 PM 75.4 °F 66.4 °F 73% 30.03 in 10.0 mi East 11.5 mph 19.6 mph N/A   Mostly Cloudy
12:55 PM 75.6 °F 66.2 °F 73% 30.02 in 10.0 mi East 17.3 mph 23.0 mph N/A   Overcast
1:15 PM 75.7 °F 64.6 °F 68% 30.01 in 10.0 mi East 15.0 mph 20.7 mph N/A   Overcast
1:35 PM 75.9 °F 65.5 °F 70% 30.00 in 10.0 mi East 9.2 mph - N/A   Overcast
1:50 PM 76.1 °F 65.7 °F 70% 29.99 in 10.0 mi East 9.2 mph 19.6 mph N/A   Overcast
2:15 PM 76.8 °F 65.5 °F 68% 30.00 in 10.0 mi East 11.5 mph 18.4 mph N/A   Overcast
2:35 PM 76.1 °F 65.1 °F 69% 30.00 in 10.0 mi East 10.4 mph 16.1 mph N/A   Overcast
2:50 PM 76.1 °F 65.1 °F 69% 30.00 in 10.0 mi East 9.2 mph - N/A   Overcast
3:15 PM 75.2 °F 66.0 °F 73% 29.99 in 5.0 mi East 3.5 mph - 0.04 in Rain Heavy Rain
3:35 PM 72.0 °F 66.4 °F 83% 30.01 in 10.0 mi WSW 11.5 mph - 0.05 in Rain Rain
3:50 PM 69.4 °F 66.4 °F 90% 30.00 in 2.5 mi West 17.3 mph 20.7 mph 0.46 in Rain Heavy Rain
4:15 PM 68.2 °F 66.4 °F 94% 29.98 in 2.5 mi NNW 10.4 mph - 0.65 in Rain Heavy Rain
4:35 PM 68.2 °F 66.6 °F 95% 29.97 in 7.0 mi ESE 4.6 mph - 0.68 in Rain Rain
4:55 PM 68.2 °F 66.2 °F 93% 29.96 in 10.0 mi East 5.8 mph - 0.70 in Rain Rain
5:15 PM 68.0 °F 66.4 °F 95% 29.94 in 5.0 mi Calm Calm - 0.03 in Rain Rain
5:35 PM 68.0 °F 66.2 °F 94% 29.92 in 10.0 mi East 9.2 mph - 0.05 in Rain Light Rain
5:55 PM 67.5 °F 65.8 °F 95% 29.96 in 10.0 mi South 5.8 mph - 0.06 in Rain Light Rain
6:15 PM 68.0 °F 66.2 °F 94% 29.96 in 10.0 mi SSW 5.8 mph - N/A Rain Light Rain
6:35 PM 68.2 °F 66.6 °F 95% 29.96 in 10.0 mi Calm Calm - N/A   Clear
6:55 PM 68.0 °F 66.4 °F 95% 29.96 in 10.0 mi Calm Calm - N/A   Clear
7:35 PM 68.0 °F 66.4 °F 95% 29.98 in 10.0 mi South 4.6 mph - N/A   Mostly Cloudy
7:36 PM 68.0 °F 66.2 °F 94% 29.98 in 10.0 mi South 4.6 mph - N/A   Mostly Cloudy
7:55 PM 68.0 °F 66.2 °F 94% 29.99 in 10.0 mi Calm Calm - N/A   Overcast
8:15 PM 67.6 °F 66.0 °F 95% 29.99 in 10.0 mi Calm Calm - N/A   Mostly Cloudy
8:30 PM 67.6 °F 66.0 °F 95% 29.99 in 10.0 mi Calm Calm - N/A   Mostly Cloudy
8:50 PM 67.5 °F 65.8 °F 95% 29.98 in 10.0 mi Calm Calm - N/A   Scattered Clouds
9:15 PM 67.5 °F 65.8 °F 95% 29.97 in 10.0 mi Calm Calm - N/A   Clear
9:35 PM 67.1 °F 65.7 °F 95% 29.98 in 10.0 mi ENE 3.5 mph - N/A   Clear
9:55 PM 67.3 °F 65.7 °F 95% 29.97 in 10.0 mi ESE 4.6 mph - N/A   Clear
10:15 PM 67.6 °F 66.2 °F 95% 29.98 in 10.0 mi ESE 3.5 mph - N/A Rain Light Rain
10:35 PM 67.6 °F 65.7 °F 93% 29.98 in 10.0 mi ESE 4.6 mph - 0.01 in Rain Light Rain
11:15 PM 67.5 °F 65.3 °F 93% 29.95 in 10.0 mi SE 4.6 mph - N/A   Light Drizzle
11:35 PM 68.0 °F 65.7 °F 92% 29.99 in 10.0 mi West 4.6 mph - N/A   Mostly Cloudy
11:55 PM 68.0 °F 65.7 °F 92% 29.99 in 10.0 mi Calm Calm - N/A   Overcast